[[{"header":{"parameterUnit":"m.s-1","parameterCategory":1,"la1":30.2991,"la2":30.254,"lo1":-89.0895,"lo2":-89.0444,"dy":0.0017,"dx":0.0017,"nx":28,"ny":28,"refTime":"2025-01-06T03:00:00:Z","depth":0,"parameterNumber":2,"parameterNumberName":"U-component_of_WINDS"},"data":[0,0,0,0,0,0,0,0,0,0,0,0,0,0,0,0,0,0,0,0,0,0,0,0,0,0,0,0,0,0,0,0,0,0,0,0,0,0,0,0,0,0,0,0,0,0,0,0,0,0,0,0,0,0,0,0,0,0,-1.2834,-1.2835,0,-1.2899,-1.29,-1.29,-1.2853,-1.285,-1.2848,-1.2846,-1.2916,-1.2919,-1.2923,0,0,0,0,0,0,0,0,0,0,0,0,0,-1.2671,-1.2674,-1.2834,-1.2835,-1.2836,-1.2899,-1.29,-1.2901,-1.2853,-1.285,-1.2848,-1.2845,-1.2914,-1.2919,-1.2924,0,0,0,0,0,0,0,0,0,0,0,0,0,-1.2739,-1.2675,-1.2834,-1.2819,-1.2819,-1.2899,-1.29,-1.2901,-1.2853,-1.285,-1.2847,-1.2844,-1.2913,-1.2919,-1.2924,-1.3023,0,0,-1.2942,-1.2944,0,0,0,0,0,0,0,0,-1.2736,-1.2746,-1.2821,-1.2821,-1.282,-1.2864,-1.2868,-1.2942,-1.2854,-1.284,-1.2846,-1.2843,-1.2901,-1.2908,-1.2927,-1.3026,-1.3029,-1.2942,-1.2946,-1.2948,-1.295,0,0,0,0,0,0,0,-1.2731,-1.2742,-1.286,-1.2822,-1.2822,-1.281,-1.2817,-1.2881,-1.2888,-1.2841,-1.2838,-1.2846,-1.2901,-1.2922,-1.2928,-1.303,-1.2942,-1.2947,-1.2951,-1.2953,-1.3212,-1.3216,0,0,0,0,0,0,-1.2727,-1.2739,-1.2858,-1.2862,-1.2769,-1.2816,-1.2823,-1.2853,-1.2887,-1.2889,-1.2849,-1.2844,-1.2913,-1.2922,-1.2931,-1.3048,-1.2948,-1.2953,-1.2957,-1.3209,-1.3213,-1.3217,0,0,0,0,0,0,-1.2724,-1.2738,-1.2855,-1.2799,-1.2813,-1.2822,-1.2857,-1.2856,-1.2877,-1.2893,-1.2894,-1.2869,-1.2911,-1.2923,-1.3,-1.305,-1.2956,-1.2961,-1.3205,-1.321,-1.3215,-1.3285,0,0,0,0,0,0,-1.2719,-1.2737,-1.2775,-1.2801,-1.2817,-1.2923,-1.286,-1.286,-1.2887,-1.2881,-1.2912,-1.2914,-1.291,-1.2992,-1.3006,-1.3056,-1.2966,-1.32,-1.3207,-1.3213,-1.3278,-1.3292,-1.3303,0,0,0,0,0,-1.2714,-1.2793,-1.2777,-1.2792,-1.2863,-1.2926,-1.2935,-1.2928,-1.2891,-1.2929,-1.2939,-1.2913,-1.3042,-1.3,-1.3015,-1.3068,-1.3197,-1.3205,-1.3213,-1.3272,-1.3289,-1.3303,0,0,0,0,0,0,-1.2774,-1.2796,-1.2779,-1.2868,-1.2895,-1.2918,-1.2966,-1.2946,-1.2985,-1.2978,-1.2967,-1.2975,-1.3056,-1.307,-1.3022,-1.3165,-1.3114,-1.3125,-1.3154,-1.317,-1.3182,-1.3178,-1.297,0,0,0,0,0,-1.2797,-1.2846,-1.2862,-1.294,-1.2954,-1.2957,-1.2985,-1.2976,-1.3005,-1.3016,-1.3032,-1.3061,-1.3108,-1.3139,-1.3183,-1.3279,-1.3285,-1.3323,-1.3335,-1.3346,-1.3356,-1.3408,-1.3425,-1.3242,-1.3242,-1.3242,0,0,-1.2847,-1.2864,-1.2896,-1.2952,-1.2972,-1.3024,-1.2968,-1.3024,-1.3062,-1.3025,-1.3099,-1.3111,-1.3143,-1.323,-1.3269,-1.3244,-1.3407,-1.3356,-1.3364,-1.3369,-1.3417,-1.3435,-1.345,-1.3248,-1.3247,-1.3246,0,0,-1.2963,-1.2981,-1.3047,-1.3068,-1.3099,-1.31,-1.3116,-1.3142,-1.3148,-1.3221,-1.3194,-1.3239,-1.332,-1.3344,-1.3367,-1.349,-1.3468,-1.3505,-1.3572,-1.3622,-1.3636,-1.3649,-1.3694,-1.371,-1.3514,-1.3515,-1.3515,0,-1.3021,-1.3096,-1.3084,-1.3143,-1.3168,-1.3135,-1.3202,-1.3223,-1.3268,-1.3286,-1.3257,-1.3357,-1.3376,-1.3468,-1.3498,-1.3517,-1.3535,-1.3502,-1.3635,-1.3648,-1.3659,-1.3702,-1.3719,-1.3519,-1.3518,-1.3518,-1.3518,0,-1.3167,-1.3219,-1.3269,-1.3311,-1.3342,-1.3405,-1.3402,-1.3435,-1.3423,-1.3428,-1.3503,-1.3524,-1.3572,-1.3592,-1.3582,-1.3683,-1.3666,-1.3636,-1.3585,-1.3681,-1.3721,-1.3737,-1.3525,-1.3524,-1.3522,-1.3521,0,0,-1.3325,-1.3358,-1.3377,-1.3395,-1.3426,-1.3466,-1.3527,-1.3572,-1.3601,-1.3632,-1.3683,-1.3751,-1.3723,-1.3749,-1.374,-1.3784,-1.3881,-1.3749,-1.3749,-1.3774,-1.3994,-1.4017,-1.4037,-1.3866,-1.3869,-1.3871,-1.3992,0,-1.3444,-1.3549,-1.3539,-1.3639,-1.3688,-1.3656,-1.3709,-1.3733,-1.3739,-1.3781,-1.3787,-1.3836,-1.3795,-1.381,-1.3852,-1.3861,-1.3925,-1.3851,-1.3914,-1.3917,-1.3909,-1.4057,-1.4083,-1.4195,-1.4007,-1.401,-1.4011,0,-1.3597,-1.3632,-1.3737,-1.3759,-1.3779,-1.3827,-1.3867,-1.3907,-1.3935,-1.3935,-1.3963,-1.3947,-1.4008,-1.3953,-1.4038,-1.3988,-1.4013,-1.4021,-1.4025,-1.4032,-1.3971,-1.407,-1.4231,-1.4248,-1.4036,-1.4034,-1.4032,0,-1.3704,-1.3777,-1.3849,-1.3866,-1.3893,-1.3927,-1.3941,-1.3964,-1.3992,-1.4027,-1.4045,-1.4087,-1.411,-1.4143,-1.4139,-1.4099,-1.4225,-1.417,-1.4228,-1.4228,-1.4258,-1.4257,-1.4427,-1.4271,-1.4271,-1.4271,-1.427,0,-1.3839,-1.3904,-1.3897,-1.3942,-1.4014,-1.4001,-1.4074,-1.4083,-1.4104,-1.415,-1.4124,-1.4168,-1.4158,-1.4202,-1.4199,-1.427,-1.428,-1.4283,-1.4282,-1.4286,-1.4286,-1.4304,-1.4296,-1.4275,-1.4274,-1.4273,-1.4273,0,-1.3971,-1.3969,-1.4045,-1.4064,-1.407,-1.4123,-1.4139,-1.4181,-1.4183,-1.4242,-1.4255,-1.4259,-1.4309,-1.4307,-1.4364,-1.4361,-1.4449,-1.4437,-1.444,-1.4438,-1.4496,-1.4491,-1.4686,-1.4711,-1.4538,-1.4539,-1.4541,0,-1.4058,-1.4107,-1.4131,-1.4159,-1.4175,-1.4221,-1.4248,-1.4237,-1.4267,-1.43,-1.4339,-1.4386,-1.4423,-1.4504,-1.4513,-1.4556,-1.4546,-1.4611,-1.4553,-1.4555,-1.4548,-1.4546,-1.4551,-1.4623,-1.4625,-1.4627,-1.4628,0,-1.4213,-1.4209,-1.4249,-1.4289,-1.4322,-1.4353,-1.4381,-1.4406,-1.4397,-1.4432,-1.4482,-1.4511,-1.4568,-1.4615,-1.4656,-1.467,-1.4649,-1.4646,-1.4662,-1.4668,-1.4668,-1.467,-1.4472,-1.4642,-1.4641,-1.464,-1.4639,-1.4638,-1.4326,-1.4368,-1.4391,-1.4437,-1.4456,-1.4483,-1.4523,-1.4529,-1.4571,-1.4616,-1.4606,-1.4663,-1.4687,-1.474,-1.4757,-1.4801,-1.4778,-1.4801,-1.4807,-1.4813,-1.482,-1.4659,-1.4808,-1.4808,-1.4808,-1.4807,-1.4807,0,-1.4481,-1.4493,-1.4535,-1.4574,-1.461,-1.4584,-1.4613,-1.4645,-1.4695,-1.4719,-1.4756,-1.4813,-1.4858,-1.4869,-1.4913,-1.4946,-1.4937,-1.4958,-1.4956,-1.496,-1.4838,-1.482,-1.4964,-1.4964,-1.4964,-1.4964,-1.4964,-1.4964,-1.4565,-1.4636,-1.4634,-1.4714,-1.4726,-1.478,-1.4799,-1.4823,-1.4842,-1.4907,-1.4944,-1.495,-1.4969,-1.5013,-1.5054,-1.5056,-1.5074,-1.5099,-1.5097,-1.4984,-1.4968,-1.4953,-1.4937,-1.5102,-1.5102,-1.5215,-1.5216,-1.5217]},{"header":{"parameterUnit":"m.s-1","parameterCategory":1,"la1":30.2991,"la2":30.254,"lo1":-89.0895,"lo2":-89.0444,"dy":0.0017,"dx":0.0017,"nx":28,"ny":28,"refTime":"2025-01-06T03:00:00:Z","depth":0,"parameterNumber":3,"parameterNumberName":"V-component_of_WINDS"},"data":[0,0,0,0,0,0,0,0,0,0,0,0,0,0,0,0,0,0,0,0,0,0,0,0,0,0,0,0,0,0,0,0,0,0,0,0,0,0,0,0,0,0,0,0,0,0,0,0,0,0,0,0,0,0,0,0,0,0,-6.4766,-6.4767,0,-6.4866,-6.4867,-6.4868,-6.4752,-6.4748,-6.4744,-6.474,-6.4839,-6.4846,-6.4852,0,0,0,0,0,0,0,0,0,0,0,0,0,-6.4471,-6.4477,-6.4766,-6.4767,-6.4768,-6.4866,-6.4867,-6.4868,-6.4753,-6.4748,-6.4743,-6.4738,-6.4837,-6.4845,-6.4853,0,0,0,0,0,0,0,0,0,0,0,0,0,-6.4588,-6.4479,-6.4765,-6.4723,-6.472,-6.4865,-6.4867,-6.4869,-6.4754,-6.4748,-6.4741,-6.4735,-6.4834,-6.4844,-6.4854,-6.5046,0,0,-6.4884,-6.4889,0,0,0,0,0,0,0,0,-6.4581,-6.4598,-6.4728,-6.4726,-6.4723,-6.479,-6.4799,-6.4928,-6.4756,-6.4741,-6.474,-6.4732,-6.4828,-6.4838,-6.4871,-6.505,-6.5055,-6.4885,-6.4891,-6.4896,-6.4899,0,0,0,0,0,0,0,-6.4573,-6.4593,-6.4805,-6.473,-6.4727,-6.4697,-6.4706,-6.4823,-6.482,-6.4742,-6.4734,-6.4747,-6.4825,-6.4862,-6.4872,-6.5056,-6.4885,-6.4894,-6.49,-6.4904,-6.5396,-6.5403,0,0,0,0,0,0,-6.457,-6.4588,-6.4802,-6.4808,-6.4635,-6.4707,-6.4718,-6.4775,-6.4818,-6.4818,-6.4753,-6.4742,-6.4848,-6.4861,-6.4875,-6.5102,-6.4896,-6.4905,-6.4911,-6.5389,-6.5398,-6.5405,0,0,0,0,0,0,-6.4565,-6.4591,-6.4798,-6.4696,-6.472,-6.472,-6.4784,-6.478,-6.4817,-6.4826,-6.4825,-6.4791,-6.4843,-6.4861,-6.5004,-6.5104,-6.491,-6.4919,-6.5381,-6.5392,-6.5401,-6.5557,0,0,0,0,0,0,-6.4557,-6.4589,-6.4663,-6.4698,-6.4726,-6.4927,-6.4791,-6.4787,-6.4835,-6.4821,-6.4862,-6.4862,-6.4839,-6.499,-6.5014,-6.5114,-6.4927,-6.5372,-6.5386,-6.5398,-6.5543,-6.5572,-6.5596,0,0,0,0,0,-6.4546,-6.4703,-6.4668,-6.4694,-6.4819,-6.4933,-6.4948,-6.492,-6.4843,-6.4917,-6.4923,-6.4861,-6.5089,-6.5005,-6.5032,-6.5136,-6.5365,-6.5382,-6.5397,-6.5531,-6.5566,-6.5596,0,0,0,0,0,0,-6.4679,-6.4707,-6.4668,-6.4841,-6.4885,-6.4913,-6.5005,-6.4958,-6.5025,-6.5009,-6.497,-6.498,-6.5132,-6.5148,-6.5054,-6.5323,-6.5214,-6.5236,-6.5307,-6.5341,-6.5367,-6.5359,-6.4935,0,0,0,0,0,-6.4728,-6.482,-6.4839,-6.4989,-6.5014,-6.5006,-6.5055,-6.5029,-6.5073,-6.5091,-6.5107,-6.5152,-6.5233,-6.5288,-6.5363,-6.5545,-6.5551,-6.5629,-6.5656,-6.5678,-6.5697,-6.5793,-6.5828,-6.5457,-6.5457,-6.5457,0,0,-6.4831,-6.4857,-6.4918,-6.5016,-6.5048,-6.5142,-6.5023,-6.5128,-6.5197,-6.5107,-6.5243,-6.5256,-6.5303,-6.5466,-6.5538,-6.5484,-6.5801,-6.5698,-6.5715,-6.5723,-6.5813,-6.5848,-6.5879,-6.5468,-6.5466,-6.5464,0,0,-6.5066,-6.5096,-6.5224,-6.5259,-6.5308,-6.5302,-6.5333,-6.5368,-6.5373,-6.5509,-6.5443,-6.5524,-6.5666,-6.5701,-6.5738,-6.5986,-6.5931,-6.6012,-6.615,-6.6244,-6.6273,-6.6299,-6.6387,-6.6419,-6.6031,-6.6031,-6.6031,0,-6.5187,-6.5329,-6.5296,-6.5406,-6.5451,-6.5374,-6.5502,-6.5537,-6.5608,-6.564,-6.5579,-6.5754,-6.578,-6.5949,-6.601,-6.6042,-6.6075,-6.6007,-6.6272,-6.6297,-6.6321,-6.6404,-6.6437,-6.6041,-6.6039,-6.6038,-6.6038,0,-6.5474,-6.5573,-6.567,-6.5742,-6.5798,-6.5917,-6.5901,-6.5961,-6.593,-6.593,-6.6068,-6.6096,-6.6176,-6.6214,-6.6185,-6.638,-6.6344,-6.6278,-6.6168,-6.6366,-6.6443,-6.6475,-6.6054,-6.6051,-6.6048,-6.6046,0,0,-6.5797,-6.5849,-6.5885,-6.5916,-6.5964,-6.6039,-6.6154,-6.6232,-6.6284,-6.6336,-6.643,-6.6551,-6.649,-6.6532,-6.6505,-6.6588,-6.6781,-6.6511,-6.6512,-6.656,-6.6996,-6.7045,-6.7083,-6.6745,-6.6751,-6.6756,-6.6992,0,-6.6032,-6.6232,-6.6206,-6.6397,-6.6487,-6.6414,-6.6514,-6.6554,-6.6556,-6.6632,-6.6633,-6.672,-6.6633,-6.6658,-6.6736,-6.6741,-6.6868,-6.6724,-6.6831,-6.6835,-6.6821,-6.7123,-6.7176,-6.7397,-6.7022,-6.7027,-6.7031,0,-6.6334,-6.6397,-6.6598,-6.6632,-6.6668,-6.6759,-6.6828,-6.6901,-6.6944,-6.694,-6.6987,-6.6945,-6.7058,-6.6946,-6.71,-6.7002,-6.7044,-6.7053,-6.7061,-6.707,-6.6945,-6.7139,-6.7467,-6.75,-6.7078,-6.7074,-6.7071,0,-6.6548,-6.6683,-6.6821,-6.6849,-6.6892,-6.6957,-6.6978,-6.7014,-6.7063,-6.7123,-6.7154,-6.7226,-6.7265,-6.7321,-6.73,-6.722,-6.7458,-6.7344,-6.7457,-6.7457,-6.751,-6.7507,-6.7849,-6.7538,-6.7538,-6.7537,-6.7536,0,-6.6814,-6.694,-6.6917,-6.7002,-6.7139,-6.7107,-6.7243,-6.7255,-6.7288,-6.7372,-6.7313,-6.7393,-6.736,-6.7438,-6.7421,-6.7551,-6.7569,-6.7568,-6.7562,-6.7573,-6.7573,-6.76,-6.7584,-6.7546,-6.7544,-6.7542,-6.7541,0,-6.7077,-6.7067,-6.7212,-6.724,-6.725,-6.7351,-6.7374,-6.7453,-6.745,-6.7557,-6.758,-6.7576,-6.7664,-6.7649,-6.7745,-6.7734,-6.7896,-6.7871,-6.7882,-6.7876,-6.7989,-6.7979,-6.836,-6.8408,-6.8067,-6.807,-6.8073,0,-6.7247,-6.7342,-6.7381,-6.7433,-6.7459,-6.7545,-6.7594,-6.7565,-6.7618,-6.7674,-6.7745,-6.7828,-6.7892,-6.8036,-6.8041,-6.8114,-6.809,-6.8219,-6.8101,-6.8109,-6.8091,-6.8086,-6.8095,-6.8242,-6.8246,-6.8249,-6.8252,0,-6.755,-6.754,-6.7614,-6.7687,-6.7747,-6.7803,-6.7852,-6.7898,-6.7873,-6.7936,-6.8026,-6.8076,-6.8175,-6.8257,-6.8326,-6.8344,-6.8295,-6.8289,-6.8319,-6.8331,-6.8333,-6.8333,-6.7946,-6.828,-6.8277,-6.8275,-6.8274,-6.8273,-6.7771,-6.7851,-6.7891,-6.7975,-6.8009,-6.8057,-6.8132,-6.8139,-6.8213,-6.8292,-6.827,-6.8372,-6.841,-6.8497,-6.8524,-6.8602,-6.8554,-6.8597,-6.8608,-6.8619,-6.8632,-6.8321,-6.8614,-6.8613,-6.8612,-6.8612,-6.8611,0,-6.807,-6.8092,-6.817,-6.8241,-6.8307,-6.8254,-6.8306,-6.8364,-6.8455,-6.8495,-6.856,-6.8663,-6.8742,-6.8753,-6.8828,-6.8888,-6.8867,-6.8908,-6.8903,-6.8908,-6.8671,-6.8638,-6.8924,-6.8924,-6.8924,-6.8924,-6.8924,-6.8924,-6.8233,-6.8367,-6.8362,-6.851,-6.8531,-6.8631,-6.8664,-6.8707,-6.874,-6.8857,-6.8923,-6.893,-6.8958,-6.9034,-6.9104,-6.9105,-6.9135,-6.9186,-6.9178,-6.8957,-6.8925,-6.8895,-6.8864,-6.9193,-6.9194,-6.9409,-6.9411,-6.9412]}]]